Regional Weather Roundup
Issued by NWS

Home | Current Version | Previous Version | Text Only | Print | Product List | Glossary On
Versions: 1 2 3 4 5 6 7 8 9 10 11 12 13 14 15 16 17 18 19 20 21 22 23 24 25 26 27
000
ASPQ40 PGUM 262212
RWRPQ
WEATHER ROUNDUP FOR THE MARIANAS AND MICRONESIA
NATIONAL WEATHER SERVICE TIYAN GU
800 AM CHST THU JUL 27 2017

GUZ001>004-262300-
MARIANA ISLANDS-

CITY           SKY/WX    TMP DP  RH WIND       PRES   REMARKS
GUAM AIRPORT   SUNNY     82  79  89 CALM      29.86R HX  93
ANDERSEN AFB   SUNNY     81  77  89 S6        29.87R
ROTA AIRPORT   PTSUNNY   81  75  83 S5        29.85S
TINIAN AP      PTSUNNY   84  77  79 SW7       29.83R HX  94
SAIPAN AP      MOSUNNY   88  79  74 W6        29.84R HX 102

$$

PMZ161-262300-
REPUBLIC OF PALAU-

CITY           SKY/WX    TMP DP  RH WIND       PRES   REMARKS
KOROR AP       PTSUNNY   79  77  94 CALM      29.83R
KOROR WSO      PTSUNNY   82  77  83 CALM      29.84R HX  91

$$

PMZ171>174-262300-
FEDERATED STATES OF MICRONESIA-

CITY           SKY/WX    TMP DP  RH WIND       PRES   REMARKS
YAP AIRPORT    LGT RAIN  77  73  88 VRB3      29.84R
CHUUK AP       CLOUDY    84  77  79 VRB6      29.81R HX  94
POHNPEI AP     CLOUDY    84  77  79 E8        29.83R HX  94
POHNPEI WSO    PTSUNNY   84  79  84 NE6       29.87R HX  96
KOSRAE AP      PTSUNNY   79  75  89 E6        29.82F

$$

PMZ181-262300-
REPUBLIC OF THE MARSHALL ISLANDS-

CITY           SKY/WX    TMP DP  RH WIND       PRES   REMARKS
KWAJALEIN AP   MOSUNNY   88  77  70 E13       29.84S HX 100
MAJURO AP      PTSUNNY   84  75  74 NE8       29.84F HX  92
MAJURO WSO     PTSUNNY   84  77  79 E12       29.83S HX  94

$$





USA.gov is the U.S. government's official web portal to all federal, state and local government web resources and services.